Tracking 28799 objects as of 18-Apr-2024
HD Live streaming from Space Station
objects crossing your sky now

STARLINK-2635

Track STARLINK-2635 now!
10-day predictions
STARLINK-2635 is classified as:


NORAD ID: 48355
Int'l Code: 2021-038C
Perigee: 553.5 km
Apogee: 555.1 km
Inclination: 53.1 °
Period: 95.6 minutes
Semi major axis: 6925 km
RCS: Unknown
Launch date: May 4, 2021
Source: United States (US)
Launch site: AIR FORCE EASTERN TEST RANGE (AFETR)
Your satellite tracking list
Your tracking list is empty




NASA's NSSDC Master Catalog

Two Line Element Set (TLE):
1 48355U 21038C   24108.59180100  .00005162  00000-0  36509-3 0  9998
2 48355  53.0509 224.0719 0001174  95.4015 264.7108 15.06409975163454
Source of the keplerian elements: AFSPC